EW7548 Weather Reports


Display with metric or nautical units.
time (UTC)temp
F
wind
direction
speed
MPH
gust
MPH
rain 1hr
in
rain 24hr
in
rain mn
in
humidity
%
barometer
mb
20260502233046 63 252 0.0 3.0 0.00 0.00 0.00 35 1012.4
20260502231607 64 254 0.0 5.0 0.00 0.00 0.00 36 1012.5
20260502230043 64 273 0.0 5.0 0.00 0.00 0.00 35 1012.7
20260502224540 64 269 3.0 9.0 0.00 0.00 0.00 33 1012.9
20260502223040 66 255 1.0 8.0 0.00 0.00 0.00 32 1013.0
20260502221538 65 282 1.0 5.0 0.00 0.00 0.00 35 1013.1
20260502220045 65 237 1.0 10.0 0.00 0.00 0.00 33 1013.3
20260502214534 65 278 1.0 8.0 0.00 0.00 0.00 33 1013.6
20260502213033 65 329 2.0 8.0 0.00 0.00 0.00 30 1013.7
20260502211530 65 221 1.0 8.0 0.00 0.00 0.00 34 1014.0
20260502210027 64 229 3.0 9.0 0.00 0.00 0.00 34 1014.2
20260502204526 65 279 5.0 10.0 0.00 0.00 0.00 32 1014.5
20260502203023 66 248 1.0 9.0 0.00 0.00 0.00 35 1014.7
20260502201520 65 288 1.0 10.0 0.00 0.00 0.00 30 1015.0
20260502200018 65 315 0.0 8.0 0.00 0.00 0.00 32 1015.3
20260502194515 64 290 1.0 8.0 0.00 0.00 0.00 33 1015.4
20260502193013 62 250 1.0 4.0 0.00 0.00 0.00 37 1015.7
20260502191510 62 317 2.0 12.0 0.00 0.00 0.00 29 1016.0
20260502190008 63 221 1.0 7.0 0.00 0.00 0.00 32 1016.3
20260502184508 63 201 1.0 3.0 0.00 0.00 0.00 34 1016.5
20260502183001 61 55 2.0 6.0 0.00 0.00 0.00 34 1016.9
20260502181559 61 261 1.0 8.0 0.00 0.00 0.00 35 1016.9
20260502163045 58 322 1.0 8.0 0.00 0.00 0.00 35 1018.4
20260502161557 57 273 1.0 9.0 0.00 0.00 0.00 40 1018.6
20260502151523 55 304 1.0 4.0 0.00 0.00 0.00 43 1018.8
20260502130104 42 238 1.0 2.0 0.00 0.00 0.00 67 1019.4
20260502123107 38 223 1.0 2.0 0.00 0.00 0.00 72 1019.6
20260502121528 36 221 1.0 2.0 0.00 0.00 0.00 73 1019.5
20260502114524 34 212 1.0 2.0 0.00 0.00 0.00 74 1019.3
20260502113023 34 220 1.0 2.0 0.00 0.00 0.00 75 1019.3
20260502111519 33 223 1.0 2.0 0.00 0.00 0.00 76 1019.3
20260502110018 33 220 1.0 2.0 0.00 0.00 0.00 76 1019.1
20260502104517 33 216 1.0 2.0 0.00 0.00 0.00 76 1019.1
20260502103017 33 225 1.0 2.0 0.00 0.00 0.00 75 1019.1
20260502101512 34 215 1.0 2.0 0.00 0.00 0.00 75 1019.2
20260502091505 35 220 0.0 2.0 0.00 0.00 0.00 73 1019.3
20260502090105 35 227 1.0 2.0 0.00 0.00 0.00 73 1019.2
20260502070057 35 209 1.0 1.0 0.00 0.00 0.00 73 1019.4
20260502064556 35 212 0.0 1.0 0.00 0.00 0.00 73 1019.5
20260502063100 35 208 0.0 2.0 0.00 0.00 0.00 73 1019.5
20260502061553 36 213 0.0 1.0 0.00 0.00 0.00 70 1019.6
20260502060050 36 213 1.0 1.0 0.00 0.00 0.00 69 1019.5
20260502054551 36 215 1.0 2.0 0.00 0.00 0.00 69 1019.5
20260502053048 36 210 1.0 1.0 0.00 0.00 0.00 68 1019.4
20260502051545 37 213 0.0 1.0 0.00 0.00 0.00 66 1019.5
20260502050041 38 222 1.0 2.0 0.00 0.00 0.00 64 1019.4
20260502044543 39 232 0.0 1.0 0.00 0.00 0.00 63 1019.4
20260502043045 39 244 0.0 1.0 0.00 0.00 0.00 61 1019.4
20260502041546 40 249 0.0 1.0 0.00 0.00 0.00 61 1019.4
20260502040039 40 279 0.0 1.0 0.00 0.00 0.00 60 1019.3
20260502034539 40 304 0.0 1.0 0.00 0.00 0.00 58 1019.3
20260502033044 42 330 0.0 0.0 0.00 0.00 0.00 56 1019.4
20260502031537 43 330 0.0 0.0 0.00 0.00 0.00 52 1019.3
20260502030036 44 334 0.0 0.0 0.00 0.00 0.00 49 1019.3
20260502024541 44 334 0.0 0.0 0.00 0.00 0.00 48 1019.3
20260502023035 45 334 0.0 1.0 0.00 0.00 0.00 50 1019.2
20260502021535 46 15 0.0 0.0 0.00 0.00 0.00 44 1019.1
20260502020033 47 15 0.0 0.0 0.00 0.00 0.00 43 1019.0
20260502014534 47 15 0.0 0.0 0.00 0.00 0.00 42 1018.9
20260502013031 48 15 0.0 0.0 0.00 0.00 0.00 42 1018.7
20260502011530 49 15 0.0 0.0 0.00 0.00 0.00 42 1018.7
20260502010033 49 15 0.0 2.0 0.00 0.00 0.00 41 1018.6
20260502004547 50 31 0.0 2.0 0.00 0.00 0.00 39 1018.5
20260502003027 50 14 0.0 2.0 0.00 0.00 0.00 40 1018.5
20260502001532 50 19 0.0 2.0 0.00 0.00 0.00 38 1018.3
20260502000030 51 36 1.0 4.0 0.00 0.00 0.00 36 1018.3
20260501234526 52 360 1.0 5.0 0.00 0.00 0.00 36 1018.2